This demonstration page uses our WeatherBlox Daily Observations layout. Learn more.

Left ArrowRight Arrow

Hourly Observations for March 22, 2022

Temp ( °F °C ) Dew Point ( °F °C ) Humidity (%) Winds ( mph kmh ) Pressure ( in mb ) Visibility ( mi km ) Precip ( " mm )
12:04 am 00:04 Cloudy with Light Rain 46 7.8 40 4.4 79 79 N 16 26 29.88 1012 7 11 0.01 0.25
12:15 am 00:15 Cloudy 46 7.8 41 5 83 83 NNW 14 22 29.88 1012 10 16 0.02 0.51
12:53 am 00:53 Cloudy 43 6.1 37 2.8 80 80 N 18 30 29.81 1009 10 16 0.02 0.51
1:36 am 01:36 Cloudy 43 6.1 34 1.1 71 71 NNW 22 35 29.93 1013 10 16 0.00 0.00
1:53 am 01:53 Mostly Cloudy 43 6.1 33 0.6 68 68 NNW 25 41 29.83 1010 10 16 0.00 0.00
2:53 am 02:53 Clear 42 5.6 32 0 68 68 NNW 15 24 29.85 1011 10 16 0.00 0.00
3:53 am 03:53 Mostly Cloudy 42 5.6 31 -0.6 65 65 NNW 16 26 29.88 1012 10 16 0.00 0.00
4:53 am 04:53 Mostly Cloudy 42 5.6 30 -1.1 62 62 NNW 13 20 29.87 1012 10 16 0.00 0.00
5:53 am 05:53 Clear 41 5 29 -1.7 62 62 NNW 15 24 29.90 1013 10 16 0.00 0.00
6:53 am 06:53 Partly Cloudy 39 3.9 28 -2.2 65 65 NNW 10 17 29.94 1014 10 16 0.00 0.00
7:53 am 07:53 Clear 39 3.9 28 -2.2 65 65 NW 12 19 29.96 1015 10 16 0.00 0.00
8:53 am 08:53 Sunny 42 5.6 27 -2.8 55 55 N 15 24 29.98 1015 10 16 0.00 0.00
9:53 am 09:53 Sunny 45 7.2 27 -2.8 49 49 N 23 37 30.01 1016 10 16 0.00 0.00
10:53 am 10:53 Sunny 48 8.9 25 -3.9 41 41 N 25 41 30.02 1017 10 16 0.00 0.00
11:53 am 11:53 Sunny 51 10.6 22 -5.6 32 32 N 23 37 30.03 1017 10 16 0.00 0.00
12:53 pm 12:53 Mostly Sunny 53 11.7 20 -6.7 27 27 N 17 28 30.04 1017 10 16 0.00 0.00
1:53 pm 13:53 Cloudy 54 12.2 18 -7.8 24 24 N 22 35 30.03 1017 10 16 0.00 0.00
2:53 pm 14:53 Partly Cloudy 54 12.2 15 -9.4 21 21 N 15 24 30.02 1017 10 16 0.00 0.00
3:53 pm 15:53 Partly Cloudy 55 12.8 14 -10 20 20 N 24 39 30.00 1016 10 16 0.00 0.00
4:53 pm 16:53 Mostly Cloudy 57 13.9 13 -10.6 17 17 N 18 30 29.98 1015 10 16 0.00 0.00
5:53 pm 17:53 Partly Cloudy 56 13.3 11 -11.7 17 17 NNW 15 24 29.98 1015 10 16 0.00 0.00
6:53 pm 18:53 Partly Cloudy 54 12.2 18 -7.8 24 24 WNW 20 31 30.01 1016 10 16 0.00 0.00
7:53 pm 19:53 Cloudy 52 11.1 14 -10 22 22 NNW 8 13 30.04 1017 10 16 0.00 0.00
8:53 pm 20:53 Clear 50 10 21 -6.1 32 32 WNW 13 20 30.06 1018 10 16 0.00 0.00
9:53 pm 21:53 Clear 48 8.9 22 -5.6 36 36 WNW 8 13 30.08 1019 10 16 0.00 0.00
10:53 pm 22:53 Clear 44 6.7 21 -6.1 40 40 N 10 17 30.10 1019 10 16 0.00 0.00
11:53 pm 23:53 Clear 41 5 20 -6.7 43 43 NW 8 13 30.10 1019 10 16 0.00 0.00

Powered by AerisWeather